GW1437 Weather Reports


Display with metric or nautical units.
time (UTC)temp
F
wind
direction
speed
MPH
gust
MPH
rain 1hr
in
rain 24hr
in
rain mn
in
humidity
%
barometer
mb
20260504022417 44 197 0.0 0.0 0.00 0.00 0.00 74 1014.6
20260504021914 44 196 0.0 1.0 0.00 0.00 0.00 75 1014.6
20260504021411 44 185 1.0 1.0 0.00 0.00 0.00 75 1014.7
20260504020909 45 196 0.0 0.0 0.00 0.00 0.00 74 1014.7
20260504020405 45 194 0.0 1.0 0.00 0.00 0.00 72 1014.7
20260504015901 45 183 1.0 1.0 0.00 0.00 0.00 73 1014.8
20260504015357 45 191 1.0 1.0 0.00 0.00 0.00 73 1014.6
20260504014853 46 192 1.0 1.0 0.00 0.00 0.00 73 1014.6
20260504014350 46 198 0.0 0.0 0.00 0.00 0.00 72 1014.6
20260504013847 47 200 0.0 0.0 0.00 0.00 0.00 67 1014.6
20260504013345 48 199 0.0 0.0 0.00 0.00 0.00 63 1014.6
20260504012841 48 200 0.0 0.0 0.00 0.00 0.00 61 1014.3
20260504012339 49 198 0.0 0.0 0.00 0.00 0.00 59 1014.4
20260504011837 50 197 0.0 0.0 0.00 0.00 0.00 58 1014.3
20260504011333 50 198 0.0 0.0 0.00 0.00 0.00 55 1014.3
20260504010829 51 184 0.0 1.0 0.00 0.00 0.00 55 1014.3
20260504010325 51 197 0.0 0.0 0.00 0.00 0.00 53 1014.3
20260504005821 52 189 0.0 0.0 0.00 0.00 0.00 52 1014.4
20260504005318 52 190 0.0 1.0 0.00 0.00 0.00 52 1014.5
20260504004816 52 189 0.0 1.0 0.00 0.00 0.00 51 1014.3
20260504004314 52 192 0.0 0.0 0.00 0.00 0.00 51 1014.4
20260504003810 52 199 0.0 0.0 0.00 0.00 0.00 50 1014.5
20260504003307 53 199 0.0 0.0 0.00 0.00 0.00 49 1014.3
20260504002803 53 199 0.0 0.0 0.00 0.00 0.00 50 1014.4
20260504002300 53 190 0.0 1.0 0.00 0.00 0.00 48 1014.4
20260504001758 54 199 0.0 0.0 0.00 0.00 0.00 48 1014.4
20260504001255 55 194 1.0 2.0 0.00 0.00 0.00 46 1014.3
20260504000752 55 201 0.0 1.0 0.00 0.00 0.00 47 1014.3
20260504000248 55 199 0.0 0.0 0.00 0.00 0.00 47 1014.3
20260503235747 55 204 0.0 0.0 0.00 0.00 0.00 45 1014.3
20260503235243 56 196 0.0 0.0 0.00 0.00 0.00 45 1014.4
20260503234741 56 201 0.0 0.0 0.00 0.00 0.00 45 1014.4
20260503234239 57 211 1.0 1.0 0.00 0.00 0.00 43 1014.4
20260503233736 57 235 1.0 2.0 0.00 0.00 0.00 42 1014.4
20260503233232 57 214 1.0 1.0 0.00 0.00 0.00 43 1014.6
20260503232729 57 250 1.0 6.0 0.00 0.00 0.00 43 1014.6
20260503232226 58 209 1.0 1.0 0.00 0.00 0.00 42 1014.6
20260503231724 59 236 1.0 2.0 0.00 0.00 0.00 41 1014.6
20260503231220 59 213 1.0 1.0 0.00 0.00 0.00 41 1014.6
20260503230717 59 201 0.0 1.0 0.00 0.00 0.00 40 1014.6
20260503230214 59 222 1.0 1.0 0.00 0.00 0.00 41 1014.6
20260503225711 59 200 0.0 0.0 0.00 0.00 0.00 42 1014.5
20260503225206 58 219 1.0 1.0 0.00 0.00 0.00 42 1014.5
20260503224703 59 225 2.0 3.0 0.00 0.00 0.00 40 1014.6
20260503224201 59 263 3.0 5.0 0.00 0.00 0.00 40 1014.6
20260503223658 59 201 0.0 0.0 0.00 0.00 0.00 41 1014.7
20260503223155 61 202 2.0 5.0 0.00 0.00 0.00 38 1014.8
20260503222652 62 218 1.0 1.0 0.00 0.00 0.00 37 1014.8
20260503222150 61 187 1.0 2.0 0.00 0.00 0.00 39 1014.4
20260503221648 59 257 1.0 2.0 0.00 0.00 0.00 41 1014.7
20260503221145 59 223 1.0 1.0 0.00 0.00 0.00 41 1014.8
20260503220642 60 186 1.0 1.0 0.00 0.00 0.00 39 1014.8
20260503220138 60 230 3.0 3.0 0.00 0.00 0.00 39 1014.7
20260503215636 61 214 1.0 1.0 0.00 0.00 0.00 38 1014.8
20260503215132 60 288 1.0 2.0 0.00 0.00 0.00 39 1014.7
20260503214631 61 213 3.0 5.0 0.00 0.00 0.00 39 1014.6
20260503214126 60 206 1.0 1.0 0.00 0.00 0.00 39 1014.5
20260503213626 59 217 1.0 1.0 0.00 0.00 0.00 40 1014.4
20260503213122 59 298 3.0 3.0 0.00 0.00 0.00 40 1014.1
20260503212620 59 203 1.0 2.0 0.00 0.00 0.00 40 1014.5
20260503212117 60 231 1.0 1.0 0.00 0.00 0.00 40 1014.4
20260503211614 60 175 0.0 1.0 0.00 0.00 0.00 40 1014.5
20260503211110 58 167 1.0 1.0 0.00 0.00 0.00 40 1014.7
20260503210607 58 189 2.0 2.0 0.00 0.00 0.00 40 1014.5
20260503205559 60 196 1.0 2.0 0.00 0.00 0.00 40 1014.9
20260503205055 59 198 1.0 2.0 0.00 0.00 0.00 38 1014.7
20260503204552 60 212 1.0 2.0 0.00 0.00 0.00 39 1015.0
20260503204049 61 223 3.0 3.0 0.00 0.00 0.00 38 1014.9
20260503203546 60 279 2.0 3.0 0.00 0.00 0.00 39 1014.8
20260503203044 61 184 1.0 2.0 0.00 0.00 0.00 37 1014.9
20260503202542 59 205 2.0 2.0 0.00 0.00 0.00 39 1014.8
20260503202039 59 217 3.0 3.0 0.00 0.00 0.00 38 1015.0
20260503201537 61 185 3.0 3.0 0.00 0.00 0.00 37 1015.0
20260503201034 61 231 2.0 2.0 0.00 0.00 0.00 38 1014.8
20260503200530 60 291 3.0 5.0 0.00 0.00 0.00 40 1015.1
20260503200027 60 207 1.0 2.0 0.00 0.00 0.00 40 1015.0
20260503195524 60 201 1.0 1.0 0.00 0.00 0.00 38 1015.3
20260503195021 60 259 2.0 2.0 0.00 0.00 0.00 39 1015.1
20260503194518 58 278 3.0 3.0 0.00 0.00 0.00 43 1015.3
20260503194018 59 206 0.0 1.0 0.00 0.00 0.00 42 1015.3
20260503193515 60 156 3.0 5.0 0.00 0.00 0.00 39 1015.7
20260503193010 60 203 1.0 1.0 0.00 0.00 0.00 39 1015.7
20260503192506 60 186 4.0 6.0 0.00 0.00 0.00 39 1015.5
20260503192002 61 212 1.0 1.0 0.00 0.00 0.00 39 1015.8
20260503191459 60 197 3.0 3.0 0.00 0.00 0.00 39 1015.6
20260503190955 58 208 1.0 2.0 0.00 0.00 0.00 43 1015.7
20260503190453 59 210 1.0 2.0 0.00 0.00 0.00 42 1015.7
20260503185950 58 238 1.0 2.0 0.00 0.00 0.00 40 1015.8
20260503185446 59 259 4.0 6.0 0.00 0.00 0.00 40 1015.8
20260503184946 59 334 4.0 8.0 0.00 0.00 0.00 40 1016.1
20260503184443 58 210 3.0 5.0 0.00 0.00 0.00 41 1016.3
20260503183939 59 228 3.0 3.0 0.00 0.00 0.00 41 1016.1
20260503183436 58 210 1.0 2.0 0.00 0.00 0.00 43 1016.3
20260503182933 60 332 5.0 6.0 0.00 0.00 0.00 40 1016.5
20260503182432 60 307 3.0 6.0 0.00 0.00 0.00 41 1016.2
20260503181929 60 199 1.0 2.0 0.00 0.00 0.00 37 1016.4
20260503181426 59 210 4.0 5.0 0.00 0.00 0.00 39 1016.5
20260503180921 58 178 1.0 3.0 0.00 0.00 0.00 41 1016.3
20260503180420 58 191 1.0 2.0 0.00 0.00 0.00 41 1016.7
20260503175916 59 214 5.0 10.0 0.00 0.00 0.00 40 1016.6
20260503175415 58 217 3.0 6.0 0.00 0.00 0.00 41 1016.8
20260503174910 57 149 3.0 3.0 0.00 0.00 0.00 41 1016.6
20260503174408 57 189 1.0 2.0 0.00 0.00 0.00 40 1016.7
20260503173903 57 238 1.0 1.0 0.00 0.00 0.00 41 1016.7
20260503173359 57 256 2.0 2.0 0.00 0.00 0.00 43 1016.7
20260503172856 57 237 5.0 8.0 0.00 0.00 0.00 39 1017.0
20260503172354 57 204 1.0 2.0 0.00 0.00 0.00 44 1017.2
20260503171849 57 189 2.0 3.0 0.00 0.00 0.00 40 1017.2
20260503171346 55 294 3.0 6.0 0.00 0.00 0.00 41 1017.2
20260503170844 56 196 2.0 3.0 0.00 0.00 0.00 40 1017.0
20260503170340 55 255 3.0 5.0 0.00 0.00 0.00 42 1017.1
20260503150732 52 174 1.0 1.0 0.00 0.00 0.00 49 1017.9
20260503150229 52 191 1.0 1.0 0.00 0.00 0.00 52 1018.1
20260503140153 50 200 2.0 3.0 0.00 0.00 0.00 58 1018.3
20260503131123 46 195 0.0 0.0 0.00 0.00 0.00 69 1018.2
20260503130620 46 199 1.0 1.0 0.00 0.00 0.00 72 1018.3
20260503130118 46 194 2.0 2.0 0.00 0.00 0.00 71 1018.4
20260503110510 30 193 0.0 0.0 0.00 0.00 0.00 99 1017.9
20260503090402 30 200 0.0 0.0 0.00 0.00 0.00 99 1017.0
20260503081329 31 199 0.0 0.0 0.00 0.00 0.00 98 1017.0
20260503080826 31 199 0.0 0.0 0.00 0.00 0.00 98 1016.9
20260503080323 31 199 0.0 0.0 0.00 0.00 0.00 98 1016.9
20260503072759 33 200 0.0 0.0 0.00 0.00 0.00 96 1016.8
20260503072256 33 199 0.0 0.0 0.00 0.00 0.00 97 1016.8
20260503071752 34 196 0.0 0.0 0.00 0.00 0.00 97 1016.7
20260503071249 34 204 0.0 0.0 0.00 0.00 0.00 97 1016.6
20260503070746 35 208 0.0 0.0 0.00 0.00 0.00 97 1016.6
20260503070244 34 198 0.0 0.0 0.00 0.00 0.00 96 1016.6
20260503060203 34 200 0.0 0.0 0.00 0.00 0.00 96 1016.8
20260503054650 34 204 0.0 0.0 0.00 0.00 0.00 95 1016.7
20260503054147 34 204 0.0 0.0 0.00 0.00 0.00 95 1016.7
20260503053645 34 200 0.0 0.0 0.00 0.00 0.00 95 1016.8
20260503053143 34 200 0.0 0.0 0.00 0.00 0.00 94 1016.7
20260503052639 34 200 0.0 0.0 0.00 0.00 0.00 94 1016.8
20260503052136 34 200 0.0 0.0 0.00 0.00 0.00 94 1016.9
20260503051631 34 202 0.0 0.0 0.00 0.00 0.00 94 1017.0
20260503051129 34 200 0.0 0.0 0.00 0.00 0.00 93 1016.7
20260503050626 35 195 0.0 0.0 0.00 0.00 0.00 93 1016.7
20260503050122 35 204 0.0 0.0 0.00 0.00 0.00 92 1017.1
20260503045620 35 199 0.0 0.0 0.00 0.00 0.00 92 1017.2
20260503045117 35 199 0.0 0.0 0.00 0.00 0.00 91 1017.0
20260503044613 35 192 0.0 1.0 0.00 0.00 0.00 92 1016.9
20260503044111 35 200 0.0 0.0 0.00 0.00 0.00 91 1017.2
20260503043607 35 197 0.0 0.0 0.00 0.00 0.00 91 1017.2
20260503043104 35 198 0.0 0.0 0.00 0.00 0.00 91 1017.1
20260503042601 36 196 0.0 0.0 0.00 0.00 0.00 91 1017.0
20260503042057 36 195 0.0 0.0 0.00 0.00 0.00 91 1017.0
20260503041553 35 198 0.0 0.0 0.00 0.00 0.00 91 1017.0
20260503041052 36 199 0.0 0.0 0.00 0.00 0.00 90 1017.0
20260503040548 36 199 0.0 0.0 0.00 0.00 0.00 89 1017.0
20260503040046 37 193 0.0 0.0 0.00 0.00 0.00 88 1017.1
20260503035542 37 202 0.0 0.0 0.00 0.00 0.00 87 1017.0
20260503035040 38 200 0.0 0.0 0.00 0.00 0.00 87 1017.2
20260503034537 38 200 0.0 0.0 0.00 0.00 0.00 86 1016.9
20260503034034 38 199 0.0 0.0 0.00 0.00 0.00 85 1017.1
20260503033531 37 200 0.0 0.0 0.00 0.00 0.00 85 1016.9
20260503033029 37 197 0.0 0.0 0.00 0.00 0.00 85 1017.1
20260503032527 38 196 0.0 0.0 0.00 0.00 0.00 85 1017.0
20260503032025 38 199 0.0 0.0 0.00 0.00 0.00 84 1016.9
20260503031523 38 198 0.0 0.0 0.00 0.00 0.00 83 1017.1
20260503031020 39 200 0.0 0.0 0.00 0.00 0.00 82 1017.0
20260503030516 39 198 0.0 0.0 0.00 0.00 0.00 82 1017.1
20260503030013 39 202 0.0 0.0 0.00 0.00 0.00 80 1017.2
20260503025509 39 200 0.0 0.0 0.00 0.00 0.00 80 1017.2
20260503025008 39 204 0.0 0.0 0.00 0.00 0.00 79 1017.1
20260503024503 40 202 0.0 0.0 0.00 0.00 0.00 78 1017.1
20260503024001 40 204 0.0 0.0 0.00 0.00 0.00 78 1017.3
20260503023457 40 204 0.0 0.0 0.00 0.00 0.00 77 1017.2
20260503022954 41 204 0.0 0.0 0.00 0.00 0.00 77 1017.4